AAL2630 KIAH-KDFW

Flight info

Callsign AAL2630
Flight time N/A
Altitude 30000
Route BLTWY7 CRIED BEREE3
Aircraft B738/M-SDE2E3FGHIRWXY/LB1

Departure

Time 2026-05-05 00:17
Airport George Bush Intercontinental Airport (KIAH)

Arrival

Time N/A
Airport Dallas Fort Worth International Airport (KDFW)
Time Latitude Longitude Altitude Speed Heading
2026-05-04 23:41 29.98529 -95.35130 106 ft 0 kts 360°
2026-05-05 00:06 29.98525 -95.35130 113 ft 3 kts 360°
2026-05-05 00:06 29.98498 -95.35130 106 ft 4 kts 359°
2026-05-05 00:06 29.98471 -95.35129 104 ft 4 kts 356°
2026-05-05 00:07 29.98444 -95.35126 105 ft 4 kts 353°
2026-05-05 00:07 29.98417 -95.35122 106 ft 4 kts 347°
2026-05-05 00:07 29.98392 -95.35112 104 ft 4 kts 324°
2026-05-05 00:07 29.98380 -95.35096 105 ft 1 kts 270°
2026-05-05 00:10 29.98380 -95.35098 106 ft 1 kts 270°
2026-05-05 00:10 29.98381 -95.35124 106 ft 5 kts 271°
2026-05-05 00:10 29.98381 -95.35167 106 ft 5 kts 270°
2026-05-05 00:10 29.98381 -95.35210 106 ft 5 kts 272°
2026-05-05 00:11 29.98375 -95.35260 106 ft 8 kts 246°
2026-05-05 00:11 29.98376 -95.35321 105 ft 8 kts 320°
2026-05-05 00:11 29.98428 -95.35351 104 ft 8 kts 334°
2026-05-05 00:11 29.98484 -95.35385 105 ft 11 kts 332°
2026-05-05 00:12 29.98560 -95.35432 106 ft 13 kts 332°
2026-05-05 00:12 29.98639 -95.35480 105 ft 13 kts 331°
2026-05-05 00:12 29.98715 -95.35528 106 ft 12 kts 329°
2026-05-05 00:12 29.98788 -95.35576 105 ft 12 kts 332°
2026-05-05 00:13 29.98845 -95.35621 106 ft 7 kts 290°
2026-05-05 00:13 29.98833 -95.35668 106 ft 3 kts 242°
2026-05-05 00:13 29.98828 -95.35678 105 ft 0 kts 241°
2026-05-05 00:15 29.98826 -95.35684 105 ft 3 kts 241°
2026-05-05 00:15 29.98811 -95.35716 106 ft 7 kts 243°
2026-05-05 00:16 29.98789 -95.35769 108 ft 5 kts 236°
2026-05-05 00:16 29.98757 -95.35767 108 ft 3 kts 154°
2026-05-05 00:16 29.98753 -95.35764 108 ft 0 kts 154°
2026-05-05 00:16 29.98709 -95.35739 106 ft 33 kts 153°
2026-05-05 00:17 29.98258 -95.35463 106 ft 110 kts 152°
2026-05-05 00:17 29.97412 -95.34939 294 ft 154 kts 152°
2026-05-05 00:17 29.96489 -95.34323 1096 ft 161 kts 147°
2026-05-05 00:17 29.95893 -95.33102 1646 ft 196 kts 105°
2026-05-05 00:18 29.96111 -95.31448 2126 ft 229 kts 68°
2026-05-05 00:18 29.97238 -95.30015 2482 ft 258 kts 32°
2026-05-05 00:18 29.99031 -95.29388 2850 ft 283 kts
2026-05-05 00:18 30.00925 -95.29868 3781 ft 279 kts 335°
2026-05-05 00:19 30.02701 -95.30694 4903 ft 272 kts 333°
2026-05-05 00:19 30.04453 -95.31513 5883 ft 273 kts 334°
2026-05-05 00:19 30.06233 -95.32315 6733 ft 275 kts 335°
2026-05-05 00:19 30.08020 -95.33084 7638 ft 274 kts 336°
2026-05-05 00:20 30.09807 -95.33830 8399 ft 280 kts 337°
2026-05-05 00:20 30.11648 -95.34578 9286 ft 280 kts 338°
2026-05-05 00:20 30.13487 -95.35314 9778 ft 279 kts 337°
2026-05-05 00:20 30.15333 -95.36048 9961 ft 282 kts 338°
2026-05-05 00:21 30.17211 -95.36790 10142 ft 292 kts 338°
2026-05-05 00:21 30.19221 -95.37585 10304 ft 317 kts 338°
2026-05-05 00:21 30.21386 -95.38438 10468 ft 340 kts 338°
2026-05-05 00:21 30.23692 -95.39342 10617 ft 360 kts 339°
2026-05-05 00:22 30.26120 -95.40293 10798 ft 376 kts 339°
2026-05-05 00:22 30.28618 -95.41270 11247 ft 381 kts 339°
2026-05-05 00:22 30.31156 -95.42198 11853 ft 384 kts 342°
2026-05-05 00:22 30.33768 -95.42889 12469 ft 386 kts 345°
2026-05-05 00:23 30.36412 -95.43491 13057 ft 389 kts 346°
2026-05-05 00:23 30.39077 -95.44089 13634 ft 391 kts 345°
2026-05-05 00:23 30.41755 -95.44709 14176 ft 393 kts 345°
2026-05-05 00:23 30.44443 -95.45353 14709 ft 395 kts 345°
2026-05-05 00:24 30.47141 -95.46011 15247 ft 398 kts 344°
2026-05-05 00:24 30.49854 -95.46675 15780 ft 400 kts 344°
2026-05-05 00:24 30.52588 -95.47326 16294 ft 402 kts 345°
2026-05-05 00:24 30.55344 -95.47943 16784 ft 405 kts 345°
2026-05-05 00:25 30.58118 -95.48558 17265 ft 407 kts 345°
2026-05-05 00:25 30.60903 -95.49180 17748 ft 409 kts 345°
2026-05-05 00:25 30.63706 -95.49807 18197 ft 412 kts 344°
2026-05-05 00:25 30.66528 -95.50440 18583 ft 414 kts 344°
2026-05-05 00:26 30.69357 -95.51077 19011 ft 414 kts 344°
2026-05-05 00:26 30.72191 -95.51715 19438 ft 415 kts 344°
2026-05-05 00:26 30.74988 -95.52344 20317 ft 402 kts 343°
2026-05-05 00:26 30.77682 -95.52946 21432 ft 387 kts 343°
2026-05-05 00:27 30.80279 -95.53527 22562 ft 373 kts 342°
2026-05-05 00:27 30.82781 -95.54089 23711 ft 359 kts 342°
2026-05-05 00:27 30.85166 -95.54624 24886 ft 338 kts 341°
2026-05-05 00:27 30.87436 -95.55134 25856 ft 330 kts 340°
2026-05-05 00:28 30.89704 -95.55656 26318 ft 335 kts 340°
2026-05-05 00:28 30.91991 -95.56185 26880 ft 335 kts 340°
2026-05-05 00:28 30.94264 -95.56705 27604 ft 330 kts 339°
2026-05-05 00:28 30.96501 -95.57213 28375 ft 325 kts 339°
2026-05-05 00:29 30.98710 -95.57715 29057 ft 322 kts 339°
2026-05-05 00:29 31.00905 -95.58215 29688 ft 321 kts 339°
2026-05-05 00:29 31.03104 -95.58718 29863 ft 322 kts 339°
2026-05-05 00:30 31.07596 -95.59756 29900 ft 342 kts 339°
2026-05-05 00:30 31.09971 -95.60304 29904 ft 353 kts 339°
2026-05-05 00:30 31.12418 -95.60864 29941 ft 364 kts 339°
2026-05-05 00:31 31.17521 -95.62026 29905 ft 383 kts 340°
2026-05-05 00:31 31.22854 -95.63237 29903 ft 397 kts 340°
2026-05-05 00:32 31.28366 -95.64491 29899 ft 409 kts 340°
2026-05-05 00:32 31.34015 -95.65798 29888 ft 416 kts 338°
2026-05-05 00:32 31.36697 -95.66931 29895 ft 406 kts 326°
2026-05-05 00:33 31.39117 -95.68603 29890 ft 405 kts 323°
2026-05-05 00:33 31.43916 -95.72094 29876 ft 407 kts 323°
2026-05-05 00:34 31.48732 -95.75580 29878 ft 407 kts 323°
2026-05-05 00:34 31.53553 -95.79040 29872 ft 406 kts 323°
2026-05-05 00:35 31.58363 -95.82484 29879 ft 404 kts 323°
2026-05-05 00:35 31.63158 -95.85921 29874 ft 403 kts 323°
2026-05-05 00:36 31.67945 -95.89359 29889 ft 404 kts 323°
2026-05-05 00:36 31.71930 -95.92225 29888 ft 405 kts 323°